Time,TemperatureF,DewpointF,PressureIn,WindDirection,WindDirectionDegrees,WindSpeedMPH,WindSpeedGustMPH,Humidity,HourlyPrecipIn,Conditions,Clouds,dailyrainin,SoftwareType,DateUTC
2013-07-17 00:00:00,70.3,67.9,30.23,NW,319,0.0,0.0,92,0.00,,,0.00,Wunderground v.1.15,2013-07-17 04:00:00,
2013-07-17 00:05:00,70.2,67.8,30.22,NW,319,0.0,0.0,92,0.00,,,0.00,Wunderground v.1.15,2013-07-17 04:05:00,
2013-07-17 00:10:00,70.3,67.9,30.22,NW,319,0.0,0.0,92,0.00,,,0.00,Wunderground v.1.15,2013-07-17 04:10:00,
2013-07-17 00:15:00,70.2,67.8,30.22,NW,319,0.0,0.0,92,0.00,,,0.00,Wunderground v.1.15,2013-07-17 04:15:00,
2013-07-17 00:20:00,70.1,67.7,30.22,NW,318,0.0,0.0,92,0.00,,,0.00,Wunderground v.1.15,2013-07-17 04:20:00,
2013-07-17 00:25:00,70.1,68.0,30.22,NW,319,0.0,0.0,93,0.00,,,0.00,Wunderground v.1.15,2013-07-17 04:25:00,
2013-07-17 00:30:00,70.0,67.9,30.22,NW,319,0.0,0.0,93,0.00,,,0.00,Wunderground v.1.15,2013-07-17 04:30:00,
2013-07-17 00:35:00,69.9,68.1,30.22,NW,319,0.0,0.0,94,0.00,,,0.00,Wunderground v.1.15,2013-07-17 04:35:00,
2013-07-17 00:40:00,69.8,68.0,30.22,NW,319,0.0,0.0,94,0.00,,,0.00,Wunderground v.1.15,2013-07-17 04:40:00,
2013-07-17 00:45:00,69.7,67.9,30.23,NW,318,0.0,0.0,94,0.00,,,0.00,Wunderground v.1.15,2013-07-17 04:45:00,
2013-07-17 00:50:00,69.7,67.9,30.22,NW,318,0.0,0.0,94,0.00,,,0.00,Wunderground v.1.15,2013-07-17 04:50:00,
2013-07-17 01:00:00,69.6,68.1,30.22,NW,319,0.0,0.0,95,0.00,,,0.00,Wunderground v.1.15,2013-07-17 05:00:00,
2013-07-17 01:05:00,69.6,68.1,30.22,NW,319,0.0,0.0,95,0.00,,,0.00,Wunderground v.1.15,2013-07-17 05:05:00,
2013-07-17 01:10:00,69.4,67.9,30.22,NW,319,0.0,0.0,95,0.00,,,0.00,Wunderground v.1.15,2013-07-17 05:10:00,
2013-07-17 01:15:00,69.3,67.8,30.22,NW,319,0.0,0.0,95,0.00,,,0.00,Wunderground v.1.15,2013-07-17 05:15:00,
2013-07-17 01:20:00,69.2,67.7,30.22,NW,319,0.0,0.0,95,0.00,,,0.00,Wunderground v.1.15,2013-07-17 05:20:00,
2013-07-17 01:25:00,69.2,67.7,30.22,NW,319,0.0,0.0,95,0.00,,,0.00,Wunderground v.1.15,2013-07-17 05:25:00,
2013-07-17 01:30:00,69.1,67.6,30.22,NW,319,0.0,0.0,95,0.00,,,0.00,Wunderground v.1.15,2013-07-17 05:30:00,
2013-07-17 01:35:00,69.0,67.5,30.21,NW,319,0.0,0.0,95,0.00,,,0.00,Wunderground v.1.15,2013-07-17 05:35:00,
2013-07-17 01:40:00,69.1,67.9,30.21,NW,319,0.0,0.0,96,0.00,,,0.00,Wunderground v.1.15,2013-07-17 05:40:00,
2013-07-17 01:45:00,69.0,67.8,30.21,NW,319,0.0,0.0,96,0.00,,,0.00,Wunderground v.1.15,2013-07-17 05:45:00,
2013-07-17 01:50:00,69.0,67.8,30.21,NW,319,0.0,0.0,96,0.00,,,0.00,Wunderground v.1.15,2013-07-17 05:50:00,
2013-07-17 01:55:00,69.0,67.8,30.21,NW,319,0.0,0.0,96,0.00,,,0.00,Wunderground v.1.15,2013-07-17 05:55:00,
2013-07-17 02:00:00,69.0,67.8,30.20,NW,319,0.0,0.0,96,0.00,,,0.00,Wunderground v.1.15,2013-07-17 06:00:00,
2013-07-17 02:10:00,68.9,67.7,30.20,NW,319,0.0,0.0,96,0.00,,,0.00,Wunderground v.1.15,2013-07-17 06:10:00,
2013-07-17 02:15:00,68.8,67.6,30.20,NW,319,0.0,0.0,96,0.00,,,0.00,Wunderground v.1.15,2013-07-17 06:15:00,
2013-07-17 02:20:00,68.8,67.6,30.20,NW,319,0.0,0.0,96,0.00,,,0.00,Wunderground v.1.15,2013-07-17 06:20:00,
2013-07-17 02:25:00,68.7,67.5,30.20,NW,319,0.0,0.0,96,0.00,,,0.00,Wunderground v.1.15,2013-07-17 06:25:00,
2013-07-17 02:30:00,68.7,67.5,30.20,NW,319,0.0,0.0,96,0.00,,,0.00,Wunderground v.1.15,2013-07-17 06:30:00,
2013-07-17 02:35:00,68.6,67.4,30.20,NW,319,0.0,0.0,96,0.00,,,0.00,Wunderground v.1.15,2013-07-17 06:35:00,
2013-07-17 02:45:00,68.7,67.8,30.20,NW,319,0.0,0.0,97,0.00,,,0.00,Wunderground v.1.15,2013-07-17 06:45:00,
2013-07-17 02:50:00,68.7,67.8,30.20,NW,319,0.0,0.0,97,0.00,,,0.00,Wunderground v.1.15,2013-07-17 06:50:00,
2013-07-17 02:55:00,68.7,67.8,30.20,NW,319,0.0,0.0,97,0.00,,,0.00,Wunderground v.1.15,2013-07-17 06:55:00,
2013-07-17 03:00:00,68.7,67.8,30.20,NW,319,0.0,0.0,97,0.00,,,0.00,Wunderground v.1.15,2013-07-17 07:00:00,
2013-07-17 03:05:00,68.6,67.7,30.21,NW,319,0.0,0.0,97,0.00,,,0.00,Wunderground v.1.15,2013-07-17 07:05:00,
2013-07-17 03:15:00,68.5,67.6,30.20,NW,319,0.0,0.0,97,0.00,,,0.00,Wunderground v.1.15,2013-07-17 07:15:00,
2013-07-17 03:25:00,68.3,67.4,30.21,NW,319,0.0,0.0,97,0.00,,,0.00,Wunderground v.1.15,2013-07-17 07:25:00,
2013-07-17 03:30:00,68.2,67.3,30.20,NW,319,0.0,0.0,97,0.00,,,0.00,Wunderground v.1.15,2013-07-17 07:30:00,
2013-07-17 03:35:00,68.1,67.2,30.20,NW,319,0.0,0.0,97,0.00,,,0.00,Wunderground v.1.15,2013-07-17 07:35:00,
2013-07-17 03:40:00,68.0,67.1,30.20,NW,319,0.0,0.0,97,0.00,,,0.00,Wunderground v.1.15,2013-07-17 07:40:00,
2013-07-17 03:45:00,68.1,67.2,30.20,NW,319,0.0,0.0,97,0.00,,,0.00,Wunderground v.1.15,2013-07-17 07:45:00,
2013-07-17 03:50:00,68.1,67.2,30.20,NW,319,0.0,0.0,97,0.00,,,0.00,Wunderground v.1.15,2013-07-17 07:50:00,
2013-07-17 03:55:00,68.1,67.2,30.20,NW,319,0.0,0.0,97,0.00,,,0.00,Wunderground v.1.15,2013-07-17 07:55:00,
2013-07-17 04:00:00,68.0,67.1,30.20,NW,319,0.0,0.0,97,0.00,,,0.00,Wunderground v.1.15,2013-07-17 08:00:00,
2013-07-17 04:05:00,67.9,67.0,30.20,NW,319,0.0,0.0,97,0.00,,,0.00,Wunderground v.1.15,2013-07-17 08:05:00,
2013-07-17 04:10:00,67.9,67.0,30.20,NW,319,0.0,0.0,97,0.00,,,0.00,Wunderground v.1.15,2013-07-17 08:10:00,
2013-07-17 04:15:00,67.9,67.0,30.20,NW,319,0.0,0.0,97,0.00,,,0.00,Wunderground v.1.15,2013-07-17 08:15:00,
2013-07-17 04:25:00,67.9,67.0,30.20,NW,319,0.0,0.0,97,0.00,,,0.00,Wunderground v.1.15,2013-07-17 08:25:00,
2013-07-17 04:30:00,67.9,67.0,30.20,NW,319,0.0,0.0,97,0.00,,,0.00,Wunderground v.1.15,2013-07-17 08:30:00,
2013-07-17 04:35:00,67.8,66.9,30.21,NW,319,0.0,0.0,97,0.00,,,0.00,Wunderground v.1.15,2013-07-17 08:35:00,
2013-07-17 04:40:00,67.7,66.8,30.21,NW,319,0.0,0.0,97,0.00,,,0.00,Wunderground v.1.15,2013-07-17 08:40:00,
2013-07-17 04:45:00,67.7,66.8,30.21,NW,319,0.0,0.0,97,0.00,,,0.00,Wunderground v.1.15,2013-07-17 08:45:00,
2013-07-17 04:50:00,67.7,66.8,30.21,NW,319,0.0,0.0,97,0.00,,,0.00,Wunderground v.1.15,2013-07-17 08:50:00,
2013-07-17 04:55:00,67.7,66.8,30.21,NW,319,0.0,0.0,97,0.00,,,0.00,Wunderground v.1.15,2013-07-17 08:55:00,
2013-07-17 05:00:00,67.7,66.8,30.21,NW,319,0.0,0.0,97,0.00,,,0.00,Wunderground v.1.15,2013-07-17 09:00:00,
2013-07-17 05:05:00,67.8,66.9,30.21,NW,319,0.0,0.0,97,0.00,,,0.00,Wunderground v.1.15,2013-07-17 09:05:00,
2013-07-17 05:10:00,67.7,66.8,30.21,NW,319,0.0,0.0,97,0.00,,,0.00,Wunderground v.1.15,2013-07-17 09:10:00,
2013-07-17 05:15:00,67.7,66.8,30.21,NW,319,0.0,0.0,97,0.00,,,0.00,Wunderground v.1.15,2013-07-17 09:15:00,
2013-07-17 05:20:00,67.7,66.8,30.21,NW,319,0.0,0.0,97,0.00,,,0.00,Wunderground v.1.15,2013-07-17 09:20:00,
2013-07-17 05:25:00,67.7,66.8,30.21,NW,319,0.0,0.0,97,0.00,,,0.00,Wunderground v.1.15,2013-07-17 09:25:00,
2013-07-17 05:30:00,67.5,66.6,30.21,NW,319,0.0,0.0,97,0.00,,,0.00,Wunderground v.1.15,2013-07-17 09:30:00,
2013-07-17 05:35:00,67.6,66.7,30.21,NW,319,0.0,0.0,97,0.00,,,0.00,Wunderground v.1.15,2013-07-17 09:35:00,
2013-07-17 05:40:00,67.5,66.6,30.21,NW,319,0.0,0.0,97,0.00,,,0.00,Wunderground v.1.15,2013-07-17 09:40:00,
2013-07-17 05:45:00,67.3,66.4,30.21,NW,319,0.0,0.0,97,0.00,,,0.00,Wunderground v.1.15,2013-07-17 09:45:00,
2013-07-17 05:55:00,67.2,66.3,30.21,NW,319,0.0,0.0,97,0.00,,,0.00,Wunderground v.1.15,2013-07-17 09:55:00,
2013-07-17 06:00:00,67.2,66.3,30.21,NW,319,0.0,0.0,97,0.00,,,0.00,Wunderground v.1.15,2013-07-17 10:00:00,
2013-07-17 06:05:00,67.2,66.3,30.22,NW,319,0.0,0.0,97,0.00,,,0.00,Wunderground v.1.15,2013-07-17 10:05:00,
2013-07-17 06:15:00,67.2,66.3,30.22,NW,319,0.0,0.0,97,0.00,,,0.00,Wunderground v.1.15,2013-07-17 10:15:00,
2013-07-17 06:20:00,67.1,66.2,30.22,NW,319,0.0,0.0,97,0.00,,,0.00,Wunderground v.1.15,2013-07-17 10:20:00,
2013-07-17 06:25:00,67.0,66.1,30.22,NW,319,0.0,0.0,97,0.00,,,0.00,Wunderground v.1.15,2013-07-17 10:25:00,
2013-07-17 06:30:00,67.0,66.1,30.22,NW,319,0.0,0.0,97,0.00,,,0.00,Wunderground v.1.15,2013-07-17 10:30:00,
2013-07-17 06:35:00,67.0,66.1,30.23,NW,319,0.0,0.0,97,0.00,,,0.00,Wunderground v.1.15,2013-07-17 10:35:00,
2013-07-17 06:40:00,66.9,66.0,30.23,NW,319,0.0,0.0,97,0.00,,,0.00,Wunderground v.1.15,2013-07-17 10:40:00,
2013-07-17 06:45:00,66.9,66.0,30.23,NW,319,0.0,0.0,97,0.00,,,0.00,Wunderground v.1.15,2013-07-17 10:45:00,
2013-07-17 06:50:00,66.8,65.9,30.23,NW,319,0.0,0.0,97,0.00,,,0.00,Wunderground v.1.15,2013-07-17 10:50:00,
2013-07-17 06:55:00,66.8,66.2,30.23,NW,319,0.0,0.0,98,0.00,,,0.00,Wunderground v.1.15,2013-07-17 10:55:00,
2013-07-17 07:00:00,66.7,65.8,30.23,NW,319,0.0,0.0,97,0.00,,,0.00,Wunderground v.1.15,2013-07-17 11:00:00,
2013-07-17 07:05:00,66.7,65.8,30.23,NW,319,0.0,0.0,97,0.00,,,0.00,Wunderground v.1.15,2013-07-17 11:05:00,
2013-07-17 07:10:00,66.7,66.1,30.23,NW,319,0.0,0.0,98,0.00,,,0.00,Wunderground v.1.15,2013-07-17 11:10:00,
2013-07-17 07:15:00,66.7,66.1,30.23,NW,319,0.0,0.0,98,0.00,,,0.00,Wunderground v.1.15,2013-07-17 11:15:00,
2013-07-17 07:20:00,66.7,66.1,30.23,NW,319,0.0,0.0,98,0.00,,,0.00,Wunderground v.1.15,2013-07-17 11:20:00,
2013-07-17 07:25:00,66.7,66.1,30.23,NW,319,0.0,0.0,98,0.00,,,0.00,Wunderground v.1.15,2013-07-17 11:25:00,
2013-07-17 07:35:00,66.9,66.3,30.23,NW,319,0.0,0.0,98,0.00,,,0.00,Wunderground v.1.15,2013-07-17 11:35:00,
2013-07-17 07:45:00,67.1,66.5,30.23,NW,319,0.0,0.0,98,0.00,,,0.00,Wunderground v.1.15,2013-07-17 11:45:00,
2013-07-17 07:50:00,67.1,66.5,30.23,NW,319,0.0,0.0,98,0.00,,,0.00,Wunderground v.1.15,2013-07-17 11:50:00,
2013-07-17 08:00:00,67.3,66.7,30.24,NW,319,0.0,0.0,98,0.00,,,0.00,Wunderground v.1.15,2013-07-17 12:00:00,
2013-07-17 08:05:00,67.3,66.7,30.24,NW,319,0.0,0.0,98,0.00,,,0.00,Wunderground v.1.15,2013-07-17 12:05:00,